Miscellaneous Local Product
Issued by NWS Hastings, NE

Home | Current Version | Previous Version | Text Only | Print | Product List | Glossary Off
Versions: 1 2 3 4 5 6 7 8 9 10 11 12 13 14 15 16 17 18 19 20 21 22 23 24 25 26 27 28 29 30 31 32 33 34 35 36 37 38 39 40 41 42 43 44 45 46 47 48 49 50

000
AXUS43 KGID 010602
MISGRI

GID CWA HOURLY WEATHER ROUNDUP
NATIONAL WEATHER SERVICE HASTINGS NE
1200 AM CST SUN FEB 01 2015

NOTE: "FAIR" INDICATES FEW OR NO CLOUDS BELOW 12,000 FEET WITH NO
SIGNIFICANT WEATHER AND/OR OBSTRUCTIONS TO VISIBILITY.

...SOUTH CENTRAL NEBRASKA...

CITY           SKY/WX    TMP DP  RH WIND       PRES   REMARKS
GRAND ISLAND   LGT SNOW  30  28  92 N18       29.85R VSB 3/4 WCI  18
HASTINGS       LGT SNOW  31  29  92 N12       29.81S VSB 1   WCI  22
KEARNEY        CLOUDY    25  21  86 N20G25    29.86R WCI  11
ORD            LGT SNOW  23  19  85 N21G29    29.92R FOG     WCI   8
YORK           LGT SNOW  32  32 100 NE7       29.83S WCI  26
AURORA         LGT SNOW  32  32 100 N8        29.83R WCI  25
LEXINGTON      LGT SNOW  23  21  89 N22G29    29.90R WCI   8
HOLDREGE       LGT SNOW  26  24  93 N17G28    29.85R WCI  13
HEBRON         LGT SNOW  32  31  96 CALM      29.80F

...NEBRASKA PANHANDLE...

CITY           SKY/WX    TMP DP  RH WIND       PRES   REMARKS
CHADRON        LGT SNOW  18  15  88 NE14      30.10R FOG     WCI   4
ALLIANCE       CLOUDY    18  15  88 N14       30.00R WCI   4
SCOTTSBLUFF    CLOUDY    24  21  88 N10       30.03R WCI  14
SIDNEY         CLOUDY    21  17  84 N15       29.97R WCI   8

...WESTERN AND NORTH CENTRAL NEBRASKA...

CITY           SKY/WX    TMP DP  RH WIND       PRES   REMARKS
VALENTINE      LGT SNOW  13   9  84 N20G28    30.09R VSB 3/4 WCI  -5
AINSWORTH      LGT SNOW  16  13  90 N25       30.03R WCI  -3
ONEILL         LGT SNOW  23  22  95 N18       29.98R WCI   9
BROKEN BOW     LGT SNOW  21  17  84 N25G33    29.92R FOG     WCI   4
IMPERIAL       LGT SNOW  22  18  85 N25       29.94R FOG     WCI   5
NORTH PLATTE   FOG       19  15  84 N21G29    29.95R VSB 1   WCI   3
MCCOOK         LGT SNOW  25  21  85 N24G35    29.89R FOG     WCI   9

...EASTERN NEBRASKA...

CITY           SKY/WX    TMP DP  RH WIND       PRES   REMARKS
NORFOLK        LGT SNOW  29  27  92 N14       29.89F VSB 3/4 WCI  18
SO SIOUX CITY  LGT SNOW  30  28  92 NE15G29   29.93S VSB 1   WCI  19
TEKAMAH        LGT SNOW  33  32  96 N7        29.89F VSB 3/4 WCI  27
ALBION         LGT SNOW  28  25  88 N13       29.89S WCI  17
OMAHA EPPLEY   LGT SNOW  33  32  96 CALM      29.87F VSB 3/4
OFFUTT AFB     LGT SNOW  32  32  98 NE5       29.85F FOG     WCI  28
MILLARD        LGT SNOW  33  32  96 CALM      29.87S
LINCOLN        LGT SNOW  32  31  96 NE7       29.85F VSB 1   WCI  26
NEBRASKA CITY  LGT SNOW  32  32 100 SE7       29.84F WCI  26
BEATRICE       LGT SNOW  32  32 100 CALM      29.81F
FALLS CITY     LGT SNOW  32  32 100 SE7       29.83F VSB 3/4 WCI  26

...NORTHERN KANSAS...

CITY           SKY/WX    TMP DP  RH WIND       PRES   REMARKS
GOODLAND       CLOUDY    27  25  92 N26       29.87R WCI  12
HILL CITY      LGT SNOW  33  30  88 N21       29.84R FOG     WCI  21
NORTON         LGT SNOW  28  25  86 N23G32    29.84R WCI  14
PHILLIPSBURG   LGT SNOW  34  34 100 NW13      29.83R WCI  25
SMITH CENTER   FLURRIES  30  30 100 N12       29.81R WCI  21
BELOIT         CLOUDY    36  36 100 CALM      29.77S
HAYS           CLOUDY    34  25  69 N15       29.79R WCI  24
RUSSELL        LGT RAIN  40  39  97 NW8       29.74S FOG     WCI  34
CONCORDIA      LGT RAIN  34  34 100 N3        29.77S FOG
SALINA         LGT RAIN  40  38  93 S9        29.77F WCI  34
TOPEKA         LGT SNOW  33  32  96 E6        29.83F FOG     WCI  28



USA.gov is the U.S. government's official web portal to all federal, state and local government web resources and services.